This demonstration page uses our WeatherBlox Daily Observations layout. Learn more.

Left ArrowRight Arrow

38.88101, -77.10428

Hourly Observations for October 19, 2020

Temp ( °F °C ) Dew Point ( °F °C ) Humidity (%) Winds ( mph kmh ) Pressure ( in mb ) Visibility ( mi km ) Precip ( " mm )
12:52 am 00:52 Mostly Cloudy 58 14.4 53 11.7 84 84 Calm 30.33 1027 10 16.0934 0 0
1:52 am 01:52 Mostly Cloudy 58 14.4 54 12.2 87 87 S 3 6 30.33 1027 10 16.0934 0 0
2:52 am 02:52 Mostly Cloudy 58 14.4 54 12.2 87 87 Calm 30.32 1027 10 16.0934 0 0
3:52 am 03:52 Partly Cloudy 58 14.4 54 12.2 87 87 NE 3 6 30.3 1026 10 16.0934 0 0
6:23 am 06:23 Mostly Cloudy 58 14.4 55 12.8 90 90 Calm 30.3 1026 10 16.0934 0 0
6:52 am 06:52 Mostly Cloudy 57 13.9 54 12.2 90 90 S 5 7 30.29 1026 10 16.0934 0 0
7:52 am 07:52 Mostly Cloudy 58 14.4 55 12.8 90 90 W 3 6 30.3 1026 10 16.0934 0 0
8:31 am 08:31 Cloudy 59 15 56 13.3 90 90 Calm 30.33 1027 10 16.0934 0 0
8:52 am 08:52 Mostly Cloudy 59 15 56 13.3 90 90 E 3 6 30.32 1027 10 16.0934 0 0
9:02 am 09:02 Mostly Cloudy 60 15.6 56 13.3 86 86 Calm 30.32 1027 10 16.0934 0 0
9:52 am 09:52 Mostly Cloudy 61 16.1 57 13.9 87 87 S 3 6 30.31 1027 10 16.0934 0 0
10:52 am 10:52 Mostly Cloudy 64 17.8 58 14.4 81 81 S 7 11 30.3 1026 10 16.0934 0 0
11:52 am 11:52 Mostly Cloudy 68 20 58 14.4 70 70 S 9 15 30.3 1026 10 16.0934 0 0
12:16 pm 12:16 Mostly Cloudy 68 20 59 15 73 73 S 7 11 30.3 1026 10 16.0934 0 0
12:23 pm 12:23 Mostly Cloudy 69 20.6 58 14.4 68 68 SSE 8 13 30.3 1026 10 16.0934 0 0
12:52 pm 12:52 Mostly Cloudy 68 20 58 14.4 70 70 S 7 11 30.28 1026 10 16.0934 0 0
1:52 pm 13:52 Mostly Cloudy 70 21.1 56 13.3 61 61 S 9 15 30.27 1025 10 16.0934 0 0
2:52 pm 14:52 Mostly Cloudy 71 21.7 57 13.9 61 61 S 7 11 30.24 1024 10 16.0934 0 0
3:52 pm 15:52 Partly Cloudy 72 22.2 57 13.9 59 59 S 9 15 30.24 1024 10 16.0934 0 0
4:52 pm 16:52 Mostly Cloudy 70 21.1 57 13.9 64 64 S 6 9 30.24 1024 10 16.0934 0 0
5:52 pm 17:52 Mostly Cloudy 68 20 57 13.9 68 68 S 8 13 30.24 1024 10 16.0934 0 0
6:52 pm 18:52 Partly Cloudy 67 19.4 57 13.9 71 71 SSE 9 15 30.25 1024 10 16.0934 0 0
7:52 pm 19:52 Partly Cloudy 65 18.3 57 13.9 76 76 S 6 9 30.25 1025 10 16.0934 0 0
8:52 pm 20:52 Partly Cloudy 64 17.8 57 13.9 78 78 S 10 17 30.22 1023 10 16.0934 0 0
9:52 pm 21:52 Partly Cloudy 63 17.2 56 13.3 78 78 S 9 15 30.22 1023 10 16.0934 0 0
10:52 pm 22:52 Partly Cloudy 63 17.2 56 13.3 78 78 WSW 3 6 30.25 1024 10 16.0934 0 0
11:52 pm 23:52 Partly Cloudy 62 16.7 57 13.9 84 84 ESE 3 6 30.25 1025 10 16.0934 0 0

Powered by AerisWeather